TimeEDT,TemperatureF,Dew PointF,Humidity,Sea Level PressureIn,VisibilityMPH,Wind Direction,Wind SpeedMPH,Gust SpeedMPH,PrecipitationIn,Events,Conditions,WindDirDegrees,DateUTC
12:54 AM,41.0,28.9,62,29.96,10.0,WNW,5.8,-,N/A,,Mostly Cloudy,300,2013-03-27 04:54:00
1:54 AM,39.9,28.9,65,29.96,10.0,NW,6.9,-,N/A,,Clear,310,2013-03-27 05:54:00
2:54 AM,41.0,28.0,60,29.96,10.0,NW,8.1,-,N/A,,Clear,310,2013-03-27 06:54:00
3:54 AM,39.9,28.0,63,29.96,10.0,NW,8.1,-,N/A,,Mostly Cloudy,310,2013-03-27 07:54:00
4:54 AM,39.0,28.0,65,29.96,10.0,NW,8.1,-,N/A,,Clear,310,2013-03-27 08:54:00
5:54 AM,39.9,28.9,65,29.98,10.0,NW,6.9,-,N/A,,Overcast,320,2013-03-27 09:54:00
6:54 AM,41.0,28.0,60,30.00,10.0,NW,9.2,-,N/A,,Overcast,320,2013-03-27 10:54:00
7:54 AM,41.0,28.0,60,30.02,10.0,NW,10.4,-,N/A,,Mostly Cloudy,320,2013-03-27 11:54:00
8:54 AM,44.1,28.9,55,30.04,10.0,NW,13.8,19.6,N/A,,Scattered Clouds,320,2013-03-27 12:54:00
9:54 AM,46.9,28.0,48,30.04,10.0,NW,13.8,-,N/A,,Scattered Clouds,320,2013-03-27 13:54:00
10:54 AM,48.9,28.0,44,30.04,10.0,NNW,12.7,-,N/A,,Scattered Clouds,340,2013-03-27 14:54:00
11:54 AM,51.1,28.0,41,30.03,10.0,WNW,12.7,-,N/A,,Scattered Clouds,300,2013-03-27 15:54:00
12:54 PM,52.0,27.0,38,30.02,10.0,NNW,13.8,24.2,N/A,,Mostly Cloudy,330,2013-03-27 16:54:00
1:54 PM,53.1,26.1,35,30.02,10.0,WNW,15.0,26.5,N/A,,Mostly Cloudy,300,2013-03-27 17:54:00
2:54 PM,52.0,25.0,35,30.01,10.0,NNW,18.4,26.5,N/A,,Mostly Cloudy,340,2013-03-27 18:54:00
3:54 PM,50.0,24.1,36,30.00,10.0,NNW,13.8,24.2,0.00,,Mostly Cloudy,330,2013-03-27 19:54:00
4:54 PM,48.9,26.1,41,30.01,10.0,NNW,10.4,23.0,0.00,,Mostly Cloudy,340,2013-03-27 20:54:00
5:54 PM,51.1,25.0,36,30.02,10.0,NW,19.6,27.6,N/A,,Mostly Cloudy,320,2013-03-27 21:54:00
6:54 PM,48.0,26.1,42,30.04,10.0,NW,11.5,19.6,N/A,,Clear,320,2013-03-27 22:54:00
7:54 PM,45.0,26.1,48,30.06,10.0,WNW,6.9,-,N/A,,Clear,300,2013-03-27 23:54:00
8:54 PM,43.0,27.0,53,30.07,10.0,NW,8.1,-,N/A,,Partly Cloudy,320,2013-03-28 00:54:00
9:54 PM,42.1,27.0,55,30.09,10.0,WNW,6.9,-,N/A,,Clear,300,2013-03-28 01:54:00
10:54 PM,42.1,27.0,55,30.09,10.0,WNW,8.1,-,N/A,,Clear,300,2013-03-28 02:54:00
11:54 PM,42.1,26.1,53,30.09,10.0,NW,8.1,-,N/A,,Clear,310,2013-03-28 03:54:00